Location: Unspecified
(0.0000°N, 0.0000°E)
Time: 11:09:28
(UTC+00:00)

A-11 Canister half - Pass Details

Date: 26 November 2019
Orbit: 1515 x 1684 km, 47.2° (Epoch: 14 December)

Event Time Altitude Azimuth Distance (km) Brightness Sun altitude
Rises 00:13:02 0° 328° (NNW) 4,895 - -68.2°
Reaches altitude 10° 00:16:17 10° 332° (NNW) 3,892 - -68.0°
Maximum altitude 00:26:02 60° 50° (NE) 1,803 - -67.1°
Drops below altitude 10° 00:35:27 10° 128° (SE) 3,771 - -66.0°
Exits shadow 00:36:19 - 129° (SE) 4,038 11.4 -65.9°
Sets 00:38:32 0° 132° (SE) 4,735 11.9 -65.7°
